Time,TemperatureF,DewpointF,PressureIn,WindDirection,WindDirectionDegrees,WindSpeedMPH,WindSpeedGustMPH,Humidity,HourlyPrecipIn,Conditions,Clouds,dailyrainin,SoftwareType,DateUTC
2013-07-22 14:08:00,68.7,56.9,25.25,SE,125,3.6,5.8,66,1.02,,---,0.00,VWS V14.01,2013-07-22 20:08:00,
2013-07-22 14:17:00,68.0,57.1,25.25,East,84,7.6,7.6,68,0.00,,---,0.00,VWS V14.01,2013-07-22 20:17:00,
2013-07-22 14:23:00,67.5,57.0,25.25,ENE,59,5.8,5.8,69,0.00,,---,0.00,VWS V14.01,2013-07-22 20:23:00,
2013-07-22 14:24:00,67.5,57.0,25.25,ESE,112,4.9,7.6,69,0.00,,---,0.00,VWS V14.01,2013-07-22 20:24:00,
2013-07-22 14:25:00,67.3,56.4,25.25,SSE,150,4.9,5.4,68,0.00,,---,0.00,VWS V14.01,2013-07-22 20:25:00,
2013-07-22 14:26:00,67.1,56.2,25.25,SE,146,5.4,5.4,68,0.00,,---,0.00,VWS V14.01,2013-07-22 20:26:00,
2013-07-22 14:28:00,66.9,56.0,25.25,NE,38,4.9,5.8,68,0.00,,---,0.00,VWS V14.01,2013-07-22 20:28:00,
2013-07-22 14:30:00,66.7,56.3,25.25,ENE,67,4.0,5.4,69,0.00,,---,0.00,VWS V14.01,2013-07-22 20:30:00,
2013-07-22 14:31:00,66.6,56.1,25.25,East,87,4.0,4.9,69,0.00,,---,0.00,VWS V14.01,2013-07-22 20:31:00,
2013-07-22 14:33:00,66.6,56.1,25.25,East,91,5.4,5.4,69,0.00,,---,0.00,VWS V14.01,2013-07-22 20:33:00,
2013-07-22 14:38:00,66.2,56.1,25.25,SE,124,2.7,4.0,70,0.00,,---,0.00,VWS V14.01,2013-07-22 20:38:00,
2013-07-22 14:41:00,66.0,56.0,25.25,SSE,160,0.0,4.0,70,0.00,,---,0.00,VWS V14.01,2013-07-22 20:41:00,
2013-07-22 14:43:00,66.0,56.0,25.25,ESE,123,3.6,3.6,70,0.00,,---,0.00,VWS V14.01,2013-07-22 20:43:00,
2013-07-22 14:44:00,65.8,55.8,25.25,SSE,148,3.1,5.8,70,0.00,,---,0.00,VWS V14.01,2013-07-22 20:44:00,
2013-07-22 14:45:00,65.8,55.4,25.25,East,90,5.4,5.8,69,0.00,,---,0.00,VWS V14.01,2013-07-22 20:45:00,
2013-07-22 14:46:00,65.8,55.4,25.25,ESE,117,2.2,5.4,69,0.00,,---,0.00,VWS V14.01,2013-07-22 20:46:00,
2013-07-22 14:51:00,65.8,55.8,25.25,East,95,2.2,2.7,70,0.00,,---,0.00,VWS V14.01,2013-07-22 20:51:00,
2013-07-22 14:52:00,65.8,55.8,25.25,East,95,0.0,2.2,70,0.00,,---,0.00,VWS V14.01,2013-07-22 20:52:00,
2013-07-22 14:53:00,66.0,56.0,25.25,NNW,340,3.6,4.0,70,0.00,,---,0.00,VWS V14.01,2013-07-22 20:53:00,
2013-07-22 14:54:00,66.0,55.6,25.25,NNE,15,0.0,3.6,69,0.00,,---,0.00,VWS V14.01,2013-07-22 20:54:00,
2013-07-22 14:56:00,66.0,55.6,25.25,NNE,13,0.0,0.0,69,0.00,,---,0.00,VWS V14.01,2013-07-22 20:56:00,
2013-07-22 14:57:00,66.0,55.6,25.25,NNE,13,0.0,0.0,69,0.00,,---,0.00,VWS V14.01,2013-07-22 20:57:00,
2013-07-22 14:58:00,66.0,55.6,25.25,NNE,13,0.0,0.0,69,0.00,,---,0.00,VWS V14.01,2013-07-22 20:58:00,
2013-07-22 14:59:00,66.0,55.6,25.25,NNE,13,0.0,0.0,69,0.00,,---,0.00,VWS V14.01,2013-07-22 20:59:00,
2013-07-22 15:04:00,66.2,55.7,25.25,ENE,63,0.0,0.0,69,0.00,,---,0.00,VWS V14.01,2013-07-22 21:04:00,
2013-07-22 15:05:00,66.2,55.7,25.25,ENE,63,0.0,0.0,69,0.00,,---,0.00,VWS V14.01,2013-07-22 21:05:00,
2013-07-22 15:09:00,66.4,55.5,25.25,ESE,113,2.2,2.7,68,0.00,,---,0.00,VWS V14.01,2013-07-22 21:09:00,
2013-07-22 15:11:00,66.4,55.5,25.25,ENE,75,2.7,2.7,68,0.00,,---,0.00,VWS V14.01,2013-07-22 21:11:00,
2013-07-22 15:12:00,66.4,54.7,25.25,NE,48,3.1,3.6,66,0.00,,---,0.00,VWS V14.01,2013-07-22 21:12:00,
2013-07-22 15:13:00,66.6,54.9,25.25,NE,48,0.0,3.1,66,0.00,,---,0.00,VWS V14.01,2013-07-22 21:13:00,
2013-07-22 15:15:00,66.6,55.3,25.25,NE,48,0.0,0.0,67,0.00,,---,0.00,VWS V14.01,2013-07-22 21:15:00,
2013-07-22 15:17:00,66.7,55.8,25.22,NNE,22,0.0,2.2,68,0.00,,---,0.00,VWS V14.01,2013-07-22 21:17:00,
2013-07-22 15:19:00,66.7,55.8,25.22,WNW,284,0.0,2.2,68,0.00,,---,0.00,VWS V14.01,2013-07-22 21:19:00,
2013-07-22 15:21:00,66.9,56.0,25.22,WNW,285,0.0,0.0,68,0.00,,---,0.00,VWS V14.01,2013-07-22 21:21:00,
2013-07-22 15:22:00,66.9,56.0,25.22,NE,37,2.7,2.7,68,0.00,,---,0.00,VWS V14.01,2013-07-22 21:22:00,
2013-07-22 15:24:00,67.1,55.8,25.22,NE,36,0.0,2.7,67,0.00,,---,0.00,VWS V14.01,2013-07-22 21:24:00,
2013-07-22 15:26:00,67.1,55.4,25.22,NE,55,0.0,4.0,66,0.00,,---,0.00,VWS V14.01,2013-07-22 21:26:00,
2013-07-22 15:30:00,66.9,55.2,25.22,East,79,3.1,3.6,66,0.00,,---,0.00,VWS V14.01,2013-07-22 21:30:00,
2013-07-22 15:31:00,66.9,55.2,25.22,East,97,2.2,3.6,66,0.00,,---,0.00,VWS V14.01,2013-07-22 21:31:00,
2013-07-22 15:32:00,66.7,55.0,25.22,East,91,2.2,2.2,66,0.00,,---,0.00,VWS V14.01,2013-07-22 21:32:00,
2013-07-22 15:33:00,66.7,55.5,25.22,ENE,57,2.7,3.1,67,0.00,,---,0.00,VWS V14.01,2013-07-22 21:33:00,
2013-07-22 15:34:00,66.6,55.3,25.22,NE,51,2.2,3.6,67,0.00,,---,0.00,VWS V14.01,2013-07-22 21:34:00,
2013-07-22 15:40:00,66.2,56.1,25.22,NE,56,2.2,3.6,70,0.00,,---,0.00,VWS V14.01,2013-07-22 21:40:00,
2013-07-22 15:41:00,66.2,56.1,25.22,NE,42,0.0,2.2,70,0.00,,---,0.00,VWS V14.01,2013-07-22 21:41:00,
2013-07-22 15:42:00,66.2,56.5,25.22,NNE,33,0.0,3.1,71,0.00,,---,0.00,VWS V14.01,2013-07-22 21:42:00,
2013-07-22 15:45:00,66.0,56.0,25.22,ENE,58,0.0,0.0,70,0.00,,---,0.00,VWS V14.01,2013-07-22 21:45:00,
2013-07-22 15:50:00,65.8,56.6,25.25,ENE,65,2.2,2.7,72,0.00,,---,0.00,VWS V14.01,2013-07-22 21:50:00,
2013-07-22 15:52:00,65.8,56.6,25.25,ESE,112,3.6,4.0,72,0.00,,---,0.00,VWS V14.01,2013-07-22 21:52:00,
2013-07-22 15:53:00,65.7,56.4,25.25,ESE,122,0.0,3.6,72,0.00,,---,0.00,VWS V14.01,2013-07-22 21:53:00,
2013-07-22 15:58:00,65.7,57.2,25.25,ESE,118,2.7,3.1,74,0.00,,---,0.00,VWS V14.01,2013-07-22 21:58:00,
2013-07-22 15:59:00,65.7,57.2,25.25,East,81,3.6,5.4,74,0.00,,---,0.00,VWS V14.01,2013-07-22 21:59:00,
2013-07-22 16:00:00,65.7,56.8,25.25,NE,48,2.7,4.0,73,0.00,,---,0.00,VWS V14.01,2013-07-22 22:00:00,
2013-07-22 16:03:00,65.7,57.2,25.25,ESE,114,3.6,7.6,74,0.00,,---,0.00,VWS V14.01,2013-07-22 22:03:00,
2013-07-22 16:04:00,65.7,57.2,25.25,SE,145,4.9,4.9,74,0.00,,---,0.00,VWS V14.01,2013-07-22 22:04:00,
2013-07-22 16:05:00,65.7,57.2,25.25,East,84,6.3,6.3,74,0.00,,---,0.00,VWS V14.01,2013-07-22 22:05:00,
2013-07-22 16:09:00,65.7,57.5,25.25,East,92,3.6,4.0,75,0.00,,---,0.00,VWS V14.01,2013-07-22 22:09:00,
2013-07-22 16:10:00,65.7,57.9,25.25,ENE,71,6.3,8.3,76,0.00,,---,0.00,VWS V14.01,2013-07-22 22:10:00,
2013-07-22 16:11:00,65.7,57.9,25.25,SSE,152,5.4,6.3,76,0.00,,---,0.00,VWS V14.01,2013-07-22 22:11:00,
2013-07-22 16:14:00,65.5,57.7,25.25,East,101,4.0,5.4,76,0.00,,---,0.00,VWS V14.01,2013-07-22 22:14:00,
2013-07-22 16:15:00,65.5,57.7,25.25,NE,53,3.6,4.0,76,0.00,,---,0.00,VWS V14.01,2013-07-22 22:15:00,
2013-07-22 16:16:00,65.5,57.7,25.25,ESE,103,0.0,4.0,76,0.00,,---,0.00,VWS V14.01,2013-07-22 22:16:00,
2013-07-22 16:18:00,65.5,58.1,25.25,East,84,3.1,5.8,77,0.00,,---,0.00,VWS V14.01,2013-07-22 22:18:00,
2013-07-22 16:20:00,65.5,58.1,25.25,ESE,118,2.7,4.0,77,0.00,,---,0.00,VWS V14.01,2013-07-22 22:20:00,
2013-07-22 16:22:00,65.5,58.1,25.25,ENE,73,2.7,6.7,77,0.00,,---,0.00,VWS V14.01,2013-07-22 22:22:00,
2013-07-22 16:23:00,65.5,58.5,25.25,NE,46,3.6,6.3,78,0.00,,---,0.00,VWS V14.01,2013-07-22 22:23:00,
2013-07-22 16:25:00,65.5,58.5,25.25,ENE,72,4.0,4.0,78,0.00,,---,0.00,VWS V14.01,2013-07-22 22:25:00,
2013-07-22 16:27:00,65.5,58.5,25.25,East,82,0.0,3.6,78,0.00,,---,0.00,VWS V14.01,2013-07-22 22:27:00,
2013-07-22 16:28:00,65.5,58.5,25.25,ENE,72,2.7,2.7,78,0.00,,---,0.00,VWS V14.01,2013-07-22 22:28:00,
2013-07-22 16:29:00,65.5,57.7,25.25,East,85,5.4,8.7,76,0.00,,---,0.00,VWS V14.01,2013-07-22 22:29:00,
2013-07-22 16:33:00,65.7,56.4,25.25,ESE,116,4.0,9.2,72,0.00,,---,0.00,VWS V14.01,2013-07-22 22:33:00,
2013-07-22 16:34:00,65.7,56.0,25.25,SE,145,5.8,5.8,71,0.00,,---,0.00,VWS V14.01,2013-07-22 22:34:00,
2013-07-22 16:35:00,65.7,56.0,25.25,ESE,108,8.3,8.3,71,0.00,,---,0.00,VWS V14.01,2013-07-22 22:35:00,
2013-07-22 16:37:00,65.8,54.6,25.25,SW,218,5.8,5.8,67,0.00,,---,0.00,VWS V14.01,2013-07-22 22:37:00,
2013-07-22 16:40:00,66.0,54.3,25.25,SSW,193,3.6,8.1,66,0.00,,---,0.00,VWS V14.01,2013-07-22 22:40:00,
2013-07-22 16:42:00,66.2,54.5,25.25,ESE,116,5.4,5.4,66,0.00,,---,0.00,VWS V14.01,2013-07-22 22:42:00,
2013-07-22 16:46:00,66.4,53.8,25.25,SE,130,5.4,5.4,64,0.00,,---,0.00,VWS V14.01,2013-07-22 22:46:00,
2013-07-22 16:47:00,66.4,53.8,25.25,SW,235,3.6,6.7,64,0.00,,---,0.00,VWS V14.01,2013-07-22 22:47:00,
2013-07-22 16:48:00,66.4,53.8,25.25,ENE,61,10.1,10.1,64,0.00,,---,0.00,VWS V14.01,2013-07-22 22:48:00,
2013-07-22 16:49:00,66.4,53.8,25.25,ESE,109,7.6,10.1,64,0.00,,---,0.00,VWS V14.01,2013-07-22 22:49:00,
2013-07-22 16:51:00,66.4,54.3,25.25,SSE,159,4.0,8.1,65,0.00,,---,0.00,VWS V14.01,2013-07-22 22:51:00,
2013-07-22 16:52:00,66.4,54.3,25.25,South,181,4.9,4.9,65,0.00,,---,0.00,VWS V14.01,2013-07-22 22:52:00,
2013-07-22 16:53:00,66.4,54.3,25.25,East,85,0.0,5.8,65,0.00,,---,0.00,VWS V14.01,2013-07-22 22:53:00,
2013-07-22 16:57:00,66.2,54.1,25.25,East,88,8.1,12.3,65,0.00,,---,0.00,VWS V14.01,2013-07-22 22:57:00,
2013-07-22 16:58:00,66.2,54.1,25.25,NE,47,7.6,8.1,65,0.00,,---,0.00,VWS V14.01,2013-07-22 22:58:00,
2013-07-22 16:59:00,66.2,54.1,25.25,SE,124,3.1,8.1,65,0.00,,---,0.00,VWS V14.01,2013-07-22 22:59:00,
2013-07-22 17:01:00,66.2,54.1,25.25,SSE,161,8.3,8.3,65,0.00,,---,0.00,VWS V14.01,2013-07-22 23:01:00,
2013-07-22 17:03:00,66.2,54.1,25.25,ESE,118,10.5,10.5,65,0.00,,---,0.00,VWS V14.01,2013-07-22 23:03:00,
2013-07-22 17:05:00,66.2,54.1,25.25,SW,220,3.6,5.4,65,0.00,,---,0.00,VWS V14.01,2013-07-22 23:05:00,
2013-07-22 17:06:00,66.0,53.9,25.25,SW,222,0.0,3.6,65,0.00,,---,0.00,VWS V14.01,2013-07-22 23:06:00,
2013-07-22 17:11:00,66.0,54.8,25.25,ESE,113,3.1,3.6,67,0.00,,---,0.00,VWS V14.01,2013-07-22 23:11:00,
2013-07-22 17:14:00,66.0,53.1,25.25,SW,224,4.0,4.9,63,0.00,,---,0.00,VWS V14.01,2013-07-22 23:14:00,
2013-07-22 17:16:00,65.8,52.9,25.25,ENE,62,5.4,6.3,63,0.00,,---,0.00,VWS V14.01,2013-07-22 23:16:00,
2013-07-22 17:17:00,65.8,52.9,25.28,SE,146,6.3,7.2,63,0.00,,---,0.00,VWS V14.01,2013-07-22 23:17:00,
2013-07-22 17:19:00,65.8,52.5,25.28,ENE,66,7.6,7.6,62,0.00,,---,0.00,VWS V14.01,2013-07-22 23:19:00,
2013-07-22 17:22:00,65.8,52.5,25.28,South,178,4.9,7.6,62,0.00,,---,0.00,VWS V14.01,2013-07-22 23:22:00,
2013-07-22 17:23:00,65.8,52.5,25.28,South,178,4.9,4.9,62,0.00,,---,0.00,VWS V14.01,2013-07-22 23:23:00,
2013-07-22 17:26:00,65.8,53.8,25.28,South,178,4.9,4.9,65,0.00,,---,0.00,VWS V14.01,2013-07-22 23:26:00,
2013-07-22 17:28:00,65.5,53.4,25.28,South,178,4.9,4.9,65,0.00,,---,0.00,VWS V14.01,2013-07-22 23:28:00,
2013-07-22 17:29:00,65.5,53.4,25.28,South,178,4.9,4.9,65,0.00,,---,0.00,VWS V14.01,2013-07-22 23:29:00,
2013-07-22 17:30:00,64.8,52.7,25.28,SSE,155,8.7,8.7,65,0.00,,---,0.00,VWS V14.01,2013-07-22 23:30:00,
2013-07-22 17:31:00,64.8,52.7,25.28,SSE,155,8.7,8.7,65,0.00,,---,0.00,VWS V14.01,2013-07-22 23:31:00,
2013-07-22 17:35:00,64.4,54.0,25.28,SSE,155,8.7,8.7,69,0.00,,---,0.00,VWS V14.01,2013-07-22 23:35:00,
2013-07-22 17:36:00,64.4,54.0,25.28,SSE,155,8.7,8.7,69,0.00,,---,0.00,VWS V14.01,2013-07-22 23:36:00,
2013-07-22 17:38:00,64.4,54.0,25.28,SSE,155,8.7,8.7,69,0.00,,---,0.00,VWS V14.01,2013-07-22 23:38:00,
2013-07-22 17:40:00,64.4,54.0,25.28,SSE,155,8.7,8.7,69,0.00,,---,0.00,VWS V14.01,2013-07-22 23:40:00,
2013-07-22 17:41:00,63.9,53.9,25.28,SSE,155,8.7,8.7,70,0.00,,---,0.00,VWS V14.01,2013-07-22 23:41:00,
2013-07-22 17:45:00,63.7,54.1,25.28,ESE,107,6.7,6.7,71,0.04,,---,0.04,VWS V14.01,2013-07-22 23:45:00,
2013-07-22 17:46:00,63.7,54.1,25.28,ESE,105,4.9,6.7,71,0.04,,---,0.04,VWS V14.01,2013-07-22 23:46:00,
2013-07-22 17:47:00,63.7,54.1,25.28,ESE,105,4.9,4.9,71,0.04,,---,0.04,VWS V14.01,2013-07-22 23:47:00,
2013-07-22 17:50:00,63.3,54.2,25.28,WSW,241,5.8,5.8,72,0.04,,---,0.04,VWS V14.01,2013-07-22 23:50:00,
2013-07-22 17:51:00,63.3,54.2,25.28,WSW,241,5.8,5.8,72,0.04,,---,0.04,VWS V14.01,2013-07-22 23:51:00,
2013-07-22 17:52:00,63.3,54.2,25.28,WSW,241,5.8,5.8,72,0.04,,---,0.04,VWS V14.01,2013-07-22 23:52:00,
2013-07-22 17:53:00,63.1,54.7,25.28,SE,138,3.1,5.8,74,0.04,,---,0.04,VWS V14.01,2013-07-22 23:53:00,
2013-07-22 17:54:00,63.1,54.7,25.28,SE,138,3.1,3.1,74,0.04,,---,0.04,VWS V14.01,2013-07-22 23:54:00,
2013-07-22 17:56:00,63.1,55.1,25.28,SSE,147,6.3,6.3,75,0.04,,---,0.04,VWS V14.01,2013-07-22 23:56:00,
2013-07-22 17:58:00,63.1,55.5,25.28,ESE,123,3.1,3.1,76,0.04,,---,0.04,VWS V14.01,2013-07-22 23:58:00,
2013-07-22 17:59:00,63.1,55.5,25.28,ESE,123,3.1,3.1,76,0.04,,---,0.04,VWS V14.01,2013-07-22 23:59:00,
2013-07-22 18:01:00,63.1,55.8,25.28,ESE,123,3.1,3.1,77,0.04,,---,0.04,VWS V14.01,2013-07-23 00:01:00,
2013-07-22 18:07:00,63.0,56.0,25.28,ESE,123,3.1,3.1,78,0.04,,---,0.04,VWS V14.01,2013-07-23 00:07:00,
2013-07-22 18:08:00,63.0,56.0,25.28,ESE,123,3.1,3.1,78,0.04,,---,0.04,VWS V14.01,2013-07-23 00:08:00,
2013-07-22 18:10:00,63.0,56.3,25.28,East,88,4.0,4.0,79,0.04,,---,0.04,VWS V14.01,2013-07-23 00:10:00,
2013-07-22 18:12:00,63.0,56.3,25.28,East,90,6.7,6.7,79,0.04,,---,0.04,VWS V14.01,2013-07-23 00:12:00,
2013-07-22 18:14:00,63.0,56.3,25.28,ESE,113,5.4,6.7,79,0.04,,---,0.04,VWS V14.01,2013-07-23 00:14:00,
2013-07-22 18:15:00,63.0,56.3,25.28,ESE,113,5.4,5.4,79,0.04,,---,0.04,VWS V14.01,2013-07-23 00:15:00,
2013-07-22 18:16:00,62.8,56.5,25.28,ESE,113,5.4,5.4,80,0.04,,---,0.04,VWS V14.01,2013-07-23 00:16:00,
2013-07-22 18:18:00,62.8,56.2,25.28,ESE,113,5.4,5.4,79,0.04,,---,0.04,VWS V14.01,2013-07-23 00:18:00,
2013-07-22 18:20:00,62.8,56.2,25.28,ESE,113,5.4,5.4,79,0.04,,---,0.04,VWS V14.01,2013-07-23 00:20:00,
2013-07-22 18:22:00,62.8,56.2,25.28,NNE,26,4.5,5.4,79,0.04,,---,0.04,VWS V14.01,2013-07-23 00:22:00,
2013-07-22 18:24:00,62.6,56.7,25.28,SE,129,3.1,4.5,81,0.04,,---,0.04,VWS V14.01,2013-07-23 00:24:00,
2013-07-22 18:25:00,62.6,56.7,25.28,SE,129,3.1,3.1,81,0.04,,---,0.04,VWS V14.01,2013-07-23 00:25:00,
2013-07-22 18:29:00,62.4,56.2,25.28,SE,131,6.7,6.7,80,0.04,,---,0.04,VWS V14.01,2013-07-23 00:29:00,
2013-07-22 18:30:00,62.4,56.2,25.28,SE,131,6.7,6.7,80,0.04,,---,0.04,VWS V14.01,2013-07-23 00:30:00,
2013-07-22 18:31:00,62.4,56.2,25.28,SE,131,6.7,6.7,80,0.04,,---,0.04,VWS V14.01,2013-07-23 00:31:00,
2013-07-22 18:32:00,62.4,56.2,25.28,SE,131,6.7,6.7,80,0.04,,---,0.04,VWS V14.01,2013-07-23 00:32:00,
2013-07-22 18:35:00,63.0,55.3,25.28,SE,131,6.7,6.7,76,0.04,,---,0.04,VWS V14.01,2013-07-23 00:35:00,
2013-07-22 18:36:00,63.0,55.3,25.28,SE,131,6.7,6.7,76,0.04,,---,0.04,VWS V14.01,2013-07-23 00:36:00,
2013-07-22 18:38:00,62.8,55.1,25.28,SE,124,4.0,4.0,76,0.04,,---,0.04,VWS V14.01,2013-07-23 00:38:00,
2013-07-22 18:39:00,62.8,55.1,25.28,SE,124,4.0,4.0,76,0.04,,---,0.04,VWS V14.01,2013-07-23 00:39:00,
2013-07-22 18:41:00,62.6,55.3,25.28,SE,124,4.0,4.0,77,0.04,,---,0.04,VWS V14.01,2013-07-23 00:41:00,
2013-07-22 18:43:00,62.6,55.3,25.28,SE,124,4.0,4.0,77,0.04,,---,0.04,VWS V14.01,2013-07-23 00:43:00,
2013-07-22 18:46:00,62.6,55.3,25.28,SE,124,4.0,4.0,77,0.00,,---,0.04,VWS V14.01,2013-07-23 00:46:00,
2013-07-22 18:47:00,62.6,55.3,25.28,SE,129,5.8,5.8,77,0.00,,---,0.04,VWS V14.01,2013-07-23 00:47:00,
2013-07-22 18:49:00,62.6,55.3,25.28,ENE,77,4.0,4.0,77,0.00,,---,0.04,VWS V14.01,2013-07-23 00:49:00,
2013-07-22 18:51:00,62.6,55.3,25.28,ESE,112,5.4,5.4,77,0.00,,---,0.04,VWS V14.01,2013-07-23 00:51:00,
2013-07-22 18:53:00,62.6,54.6,25.28,ESE,112,5.4,5.4,75,0.00,,---,0.04,VWS V14.01,2013-07-23 00:53:00,
2013-07-22 18:55:00,62.8,54.8,25.28,ESE,112,5.4,5.4,75,0.00,,---,0.04,VWS V14.01,2013-07-23 00:55:00,
2013-07-22 18:56:00,62.8,54.8,25.28,ESE,112,5.4,5.4,75,0.00,,---,0.04,VWS V14.01,2013-07-23 00:56:00,
2013-07-22 18:57:00,62.8,54.8,25.28,ESE,112,5.4,5.4,75,0.00,,---,0.04,VWS V14.01,2013-07-23 00:57:00,
2013-07-22 18:59:00,62.8,54.4,25.28,SE,139,2.7,2.7,74,0.00,,---,0.04,VWS V14.01,2013-07-23 00:59:00,
2013-07-22 19:03:00,63.0,54.2,25.28,ESE,108,4.9,4.9,73,0.00,,---,0.04,VWS V14.01,2013-07-23 01:03:00,
2013-07-22 19:06:00,63.0,54.2,25.28,SE,131,3.1,3.1,73,0.00,,---,0.04,VWS V14.01,2013-07-23 01:06:00,
2013-07-22 19:10:00,63.0,53.8,25.28,SE,131,3.1,3.1,72,0.00,,---,0.04,VWS V14.01,2013-07-23 01:10:00,
2013-07-22 19:11:00,63.0,53.8,25.28,SE,131,3.1,3.1,72,0.00,,---,0.04,VWS V14.01,2013-07-23 01:11:00,
2013-07-22 19:12:00,63.0,53.8,25.28,SE,131,3.1,3.1,72,0.00,,---,0.04,VWS V14.01,2013-07-23 01:12:00,
2013-07-22 19:15:00,63.0,53.8,25.28,ESE,121,0.0,0.0,72,0.00,,---,0.04,VWS V14.01,2013-07-23 01:15:00,
2013-07-22 19:16:00,62.8,53.6,25.28,ESE,121,0.0,0.0,72,0.00,,---,0.04,VWS V14.01,2013-07-23 01:16:00,
2013-07-22 19:17:00,62.8,53.6,25.28,SE,135,5.8,5.8,72,0.00,,---,0.04,VWS V14.01,2013-07-23 01:17:00,
2013-07-22 19:23:00,63.0,53.0,25.28,ESE,118,3.1,3.1,70,0.00,,---,0.04,VWS V14.01,2013-07-23 01:23:00,
2013-07-22 19:25:00,63.0,53.4,25.28,ESE,118,3.1,3.1,71,0.00,,---,0.04,VWS V14.01,2013-07-23 01:25:00,
2013-07-22 19:28:00,63.0,53.4,25.28,ESE,118,3.1,3.1,71,0.00,,---,0.04,VWS V14.01,2013-07-23 01:28:00,
2013-07-22 19:29:00,63.0,53.4,25.28,SSE,164,0.0,3.1,71,0.00,,---,0.04,VWS V14.01,2013-07-23 01:29:00,
2013-07-22 19:33:00,62.8,52.5,25.28,WSW,252,2.2,2.2,69,0.00,,---,0.04,VWS V14.01,2013-07-23 01:33:00,
2013-07-22 19:35:00,62.8,52.5,25.28,ESE,105,4.0,4.0,69,0.00,,---,0.04,VWS V14.01,2013-07-23 01:35:00,
2013-07-22 19:36:00,63.0,52.2,25.28,ESE,105,4.0,4.0,68,0.00,,---,0.04,VWS V14.01,2013-07-23 01:36:00,
2013-07-22 19:37:00,63.0,52.2,25.28,ESE,105,4.0,4.0,68,0.00,,---,0.04,VWS V14.01,2013-07-23 01:37:00,
2013-07-22 19:41:00,63.0,52.2,25.28,South,185,2.2,2.2,68,0.00,,---,0.04,VWS V14.01,2013-07-23 01:41:00,
2013-07-22 19:42:00,63.0,52.6,25.28,South,185,2.2,2.2,69,0.00,,---,0.04,VWS V14.01,2013-07-23 01:42:00,
2013-07-22 19:43:00,63.0,52.6,25.28,East,101,3.1,3.1,69,0.00,,---,0.04,VWS V14.01,2013-07-23 01:43:00,
2013-07-22 19:44:00,63.0,51.8,25.28,East,101,3.1,3.1,67,0.00,,---,0.04,VWS V14.01,2013-07-23 01:44:00,
2013-07-22 19:49:00,63.0,51.8,25.28,ESE,108,2.2,5.4,67,0.00,,---,0.04,VWS V14.01,2013-07-23 01:49:00,
2013-07-22 19:50:00,63.0,51.8,25.28,ESE,108,2.2,2.2,67,0.00,,---,0.04,VWS V14.01,2013-07-23 01:50:00,
2013-07-22 19:51:00,63.9,48.8,25.28,ESE,108,2.2,2.2,58,0.00,,---,0.04,VWS V14.01,2013-07-23 01:51:00,
2013-07-22 19:52:00,63.9,48.8,25.28,ESE,108,2.2,2.2,58,0.00,,---,0.04,VWS V14.01,2013-07-23 01:52:00,
2013-07-22 19:56:00,63.9,48.8,25.28,NNE,28,3.1,3.1,58,0.00,,---,0.04,VWS V14.01,2013-07-23 01:56:00,
2013-07-22 19:57:00,63.9,48.8,25.28,SE,140,8.3,8.3,58,0.00,,---,0.04,VWS V14.01,2013-07-23 01:57:00,
2013-07-22 20:00:00,64.9,48.4,25.28,SE,140,8.3,8.3,55,0.00,,---,0.04,VWS V14.01,2013-07-23 02:00:00,
2013-07-22 20:01:00,64.9,48.4,25.28,SE,140,8.3,8.3,55,0.00,,---,0.04,VWS V14.01,2013-07-23 02:01:00,
2013-07-22 20:03:00,64.9,48.4,25.28,SE,140,8.3,8.3,55,0.00,,---,0.04,VWS V14.01,2013-07-23 02:03:00,
2013-07-22 20:05:00,64.9,48.4,25.28,ENE,77,8.1,8.1,55,0.00,,---,0.04,VWS V14.01,2013-07-23 02:05:00,
2013-07-22 20:07:00,64.9,48.4,25.28,East,79,3.1,11.0,55,0.00,,---,0.04,VWS V14.01,2013-07-23 02:07:00,
2013-07-22 20:08:00,65.7,47.6,25.28,East,79,3.1,3.1,52,0.00,,---,0.04,VWS V14.01,2013-07-23 02:08:00,
2013-07-22 20:10:00,65.7,46.5,25.28,ESE,104,4.0,4.0,50,0.00,,---,0.04,VWS V14.01,2013-07-23 02:10:00,
2013-07-22 20:12:00,65.7,46.5,25.28,SE,142,8.7,8.7,50,0.00,,---,0.04,VWS V14.01,2013-07-23 02:12:00,
2013-07-22 20:13:00,65.8,46.7,25.28,SE,142,8.7,8.7,50,0.00,,---,0.04,VWS V14.01,2013-07-23 02:13:00,
2013-07-22 20:15:00,66.0,46.9,25.28,ESE,116,3.1,8.7,50,0.00,,---,0.04,VWS V14.01,2013-07-23 02:15:00,
2013-07-22 20:17:00,66.0,46.9,25.28,ESE,116,3.1,3.1,50,0.00,,---,0.04,VWS V14.01,2013-07-23 02:17:00,
2013-07-22 20:19:00,66.0,46.9,25.28,ESE,116,3.1,3.1,50,0.00,,---,0.04,VWS V14.01,2013-07-23 02:19:00,
2013-07-22 20:20:00,66.0,46.9,25.28,ESE,116,3.6,3.6,50,0.00,,---,0.04,VWS V14.01,2013-07-23 02:20:00,
2013-07-22 20:25:00,65.7,47.6,25.28,East,94,8.1,8.1,52,0.00,,---,0.04,VWS V14.01,2013-07-23 02:25:00,
2013-07-22 20:26:00,65.7,47.6,25.28,SSE,158,3.1,8.1,52,0.00,,---,0.04,VWS V14.01,2013-07-23 02:26:00,
2013-07-22 20:28:00,65.7,47.6,25.28,East,94,2.7,2.7,52,0.00,,---,0.04,VWS V14.01,2013-07-23 02:28:00,
2013-07-22 20:30:00,65.7,47.6,25.28,East,94,2.7,2.7,52,0.00,,---,0.04,VWS V14.01,2013-07-23 02:30:00,
2013-07-22 20:32:00,65.7,47.6,25.28,SW,223,2.7,2.7,52,0.00,,---,0.04,VWS V14.01,2013-07-23 02:32:00,
2013-07-22 20:34:00,65.3,49.2,25.28,SSW,197,3.1,3.1,56,0.00,,---,0.04,VWS V14.01,2013-07-23 02:34:00,
2013-07-22 20:35:00,65.3,49.2,25.28,SSW,197,3.1,3.1,56,0.00,,---,0.04,VWS V14.01,2013-07-23 02:35:00,
2013-07-22 20:37:00,65.1,49.0,25.28,South,169,6.3,6.3,56,0.00,,---,0.04,VWS V14.01,2013-07-23 02:37:00,
2013-07-22 20:40:00,65.1,49.0,25.28,ENE,61,2.7,3.1,56,0.00,,---,0.04,VWS V14.01,2013-07-23 02:40:00,
2013-07-22 20:42:00,65.1,49.0,25.28,ENE,62,2.2,2.2,56,0.00,,---,0.04,VWS V14.01,2013-07-23 02:42:00,
2013-07-22 20:43:00,65.1,49.0,25.28,ENE,62,2.2,2.2,56,0.00,,---,0.04,VWS V14.01,2013-07-23 02:43:00,
2013-07-22 20:44:00,65.1,49.0,25.28,ENE,62,2.2,2.2,56,0.00,,---,0.04,VWS V14.01,2013-07-23 02:44:00,
2013-07-22 20:45:00,65.1,49.0,25.28,ENE,62,2.2,2.2,56,0.00,,---,0.04,VWS V14.01,2013-07-23 02:45:00,
2013-07-22 20:48:00,65.1,49.0,25.28,SE,146,2.7,5.4,56,0.00,,---,0.04,VWS V14.01,2013-07-23 02:48:00,
2013-07-22 20:49:00,65.1,49.0,25.28,SE,137,3.1,3.1,56,0.00,,---,0.04,VWS V14.01,2013-07-23 02:49:00,
2013-07-22 20:52:00,65.5,49.4,25.28,ESE,103,3.6,3.6,56,0.00,,---,0.04,VWS V14.01,2013-07-23 02:52:00,
2013-07-22 20:53:00,65.5,49.4,25.28,ESE,103,3.6,3.6,56,0.00,,---,0.04,VWS V14.01,2013-07-23 02:53:00,
2013-07-22 20:54:00,65.5,49.4,25.28,ESE,103,3.6,3.6,56,0.00,,---,0.04,VWS V14.01,2013-07-23 02:54:00,
2013-07-22 20:55:00,65.5,49.4,25.28,East,85,3.1,3.6,56,0.00,,---,0.04,VWS V14.01,2013-07-23 02:55:00,
2013-07-22 20:59:00,65.7,49.1,25.28,ESE,105,4.0,5.8,55,0.00,,---,0.04,VWS V14.01,2013-07-23 02:59:00,
2013-07-22 21:00:00,65.7,50.0,25.28,ESE,105,4.0,4.0,57,0.00,,---,0.04,VWS V14.01,2013-07-23 03:00:00,
2013-07-22 21:02:00,65.7,49.6,25.28,SW,219,3.1,4.0,56,0.00,,---,0.04,VWS V14.01,2013-07-23 03:02:00,
2013-07-22 21:05:00,65.7,49.6,25.28,SSE,150,2.7,2.7,56,0.00,,---,0.04,VWS V14.01,2013-07-23 03:05:00,
2013-07-22 21:06:00,65.7,49.6,25.28,SE,137,5.4,5.4,56,0.00,,---,0.04,VWS V14.01,2013-07-23 03:06:00,
2013-07-22 21:08:00,65.7,49.6,25.28,SE,137,5.4,5.4,56,0.00,,---,0.04,VWS V14.01,2013-07-23 03:08:00,
2013-07-22 21:10:00,65.7,49.6,25.28,North,9,0.0,2.7,56,0.00,,---,0.04,VWS V14.01,2013-07-23 03:10:00,
2013-07-22 21:12:00,65.5,49.9,25.28,SE,138,5.4,5.4,57,0.00,,---,0.04,VWS V14.01,2013-07-23 03:12:00,
2013-07-22 21:13:00,65.5,49.9,25.28,ESE,117,7.6,7.6,57,0.00,,---,0.04,VWS V14.01,2013-07-23 03:13:00,
2013-07-22 21:17:00,65.5,50.3,25.28,SE,124,6.7,6.7,58,0.00,,---,0.04,VWS V14.01,2013-07-23 03:17:00,
2013-07-22 21:18:00,65.5,50.3,25.28,SE,124,6.7,6.7,58,0.00,,---,0.04,VWS V14.01,2013-07-23 03:18:00,
2013-07-22 21:20:00,65.5,50.3,25.28,SE,124,6.7,6.7,58,0.00,,---,0.04,VWS V14.01,2013-07-23 03:20:00,
2013-07-22 21:22:00,65.5,50.3,25.28,SE,124,6.7,6.7,58,0.00,,---,0.04,VWS V14.01,2013-07-23 03:22:00,
2013-07-22 21:24:00,65.3,50.2,25.28,East,87,5.8,5.8,58,0.00,,---,0.04,VWS V14.01,2013-07-23 03:24:00,
2013-07-22 21:26:00,65.3,50.2,25.28,East,87,5.8,5.8,58,0.00,,---,0.04,VWS V14.01,2013-07-23 03:26:00,
2013-07-22 21:27:00,65.3,50.2,25.28,East,87,5.8,5.8,58,0.00,,---,0.04,VWS V14.01,2013-07-23 03:27:00,
2013-07-22 21:28:00,65.3,50.2,25.28,NE,39,2.2,5.8,58,0.00,,---,0.04,VWS V14.01,2013-07-23 03:28:00,
2013-07-22 21:30:00,65.3,50.2,25.28,SSE,149,3.1,3.6,58,0.00,,---,0.04,VWS V14.01,2013-07-23 03:30:00,
2013-07-22 21:33:00,65.3,50.2,25.28,SSE,158,0.0,0.0,58,0.00,,---,0.04,VWS V14.01,2013-07-23 03:33:00,
2013-07-22 21:35:00,65.3,50.2,25.31,SSE,158,0.0,0.0,58,0.00,,---,0.04,VWS V14.01,2013-07-23 03:35:00,
2013-07-22 21:36:00,65.3,50.2,25.31,SSE,158,0.0,0.0,58,0.00,,---,0.04,VWS V14.01,2013-07-23 03:36:00,
2013-07-22 21:37:00,65.3,50.2,25.31,ESE,111,5.8,5.8,58,0.00,,---,0.04,VWS V14.01,2013-07-23 03:37:00,
2013-07-22 21:39:00,65.3,50.2,25.31,ENE,69,2.7,5.8,58,0.00,,---,0.04,VWS V14.01,2013-07-23 03:39:00,
2013-07-22 21:41:00,65.3,50.2,25.31,SE,145,7.6,7.6,58,0.00,,---,0.04,VWS V14.01,2013-07-23 03:41:00,
2013-07-22 21:43:00,65.1,50.9,25.31,SE,132,3.6,7.6,60,0.00,,---,0.04,VWS V14.01,2013-07-23 03:43:00,
2013-07-22 21:44:00,65.1,50.9,25.31,SE,130,7.2,7.2,60,0.00,,---,0.04,VWS V14.01,2013-07-23 03:44:00,
2013-07-22 21:45:00,64.9,50.7,25.31,SE,130,7.2,7.2,60,0.00,,---,0.04,VWS V14.01,2013-07-23 03:45:00,
2013-07-22 21:46:00,64.9,50.7,25.31,SE,130,7.2,7.2,60,0.00,,---,0.04,VWS V14.01,2013-07-23 03:46:00,
2013-07-22 21:49:00,64.9,50.7,25.31,SE,130,7.2,7.2,60,0.00,,---,0.04,VWS V14.01,2013-07-23 03:49:00,
2013-07-22 21:50:00,64.9,50.7,25.31,SE,130,7.2,7.2,60,0.00,,---,0.04,VWS V14.01,2013-07-23 03:50:00,
2013-07-22 21:51:00,64.9,50.7,25.31,South,175,3.6,7.2,60,0.00,,---,0.04,VWS V14.01,2013-07-23 03:51:00,
2013-07-22 21:52:00,64.9,50.7,25.31,South,175,3.6,3.6,60,0.00,,---,0.04,VWS V14.01,2013-07-23 03:52:00,
2013-07-22 21:53:00,64.9,50.7,25.31,South,175,3.6,3.6,60,0.00,,---,0.04,VWS V14.01,2013-07-23 03:53:00,
2013-07-22 21:57:00,64.9,50.7,25.31,East,97,3.6,3.6,60,0.00,,---,0.04,VWS V14.01,2013-07-23 03:57:00,
2013-07-22 21:58:00,64.9,50.7,25.31,South,177,3.6,9.6,60,0.00,,---,0.04,VWS V14.01,2013-07-23 03:58:00,
2013-07-22 22:00:00,65.1,50.9,25.31,South,177,3.6,3.6,60,0.00,,---,0.04,VWS V14.01,2013-07-23 04:00:00,
2013-07-22 22:01:00,65.1,50.9,25.31,South,177,3.6,3.6,60,0.00,,---,0.04,VWS V14.01,2013-07-23 04:01:00,
2013-07-22 22:02:00,65.1,50.9,25.31,South,177,3.6,3.6,60,0.00,,---,0.04,VWS V14.01,2013-07-23 04:02:00,
2013-07-22 22:06:00,65.1,50.9,25.31,ESE,102,4.5,4.5,60,0.00,,---,0.04,VWS V14.01,2013-07-23 04:06:00,
2013-07-22 22:07:00,65.1,50.9,25.31,ESE,112,3.6,4.5,60,0.00,,---,0.04,VWS V14.01,2013-07-23 04:07:00,
2013-07-22 22:08:00,65.1,50.9,25.31,SSE,151,3.6,3.6,60,0.00,,---,0.04,VWS V14.01,2013-07-23 04:08:00,
2013-07-22 22:12:00,65.1,50.5,25.31,ESE,121,2.7,4.0,59,0.00,,---,0.04,VWS V14.01,2013-07-23 04:12:00,
2013-07-22 22:14:00,65.1,50.5,25.31,ESE,121,2.7,2.7,59,0.00,,---,0.04,VWS V14.01,2013-07-23 04:14:00,
2013-07-22 22:15:00,65.1,50.5,25.31,ESE,121,2.7,2.7,59,0.00,,---,0.04,VWS V14.01,2013-07-23 04:15:00,
2013-07-22 22:17:00,65.1,50.9,25.28,ENE,67,4.0,4.0,60,0.00,,---,0.04,VWS V14.01,2013-07-23 04:17:00,
2013-07-22 22:19:00,64.9,51.2,25.28,East,96,3.1,4.0,61,0.00,,---,0.04,VWS V14.01,2013-07-23 04:19:00,
2013-07-22 22:21:00,64.9,51.2,25.28,East,96,3.1,3.1,61,0.00,,---,0.04,VWS V14.01,2013-07-23 04:21:00,
2013-07-22 22:22:00,64.9,51.2,25.28,ESE,116,3.1,3.1,61,0.00,,---,0.04,VWS V14.01,2013-07-23 04:22:00,
2013-07-22 22:25:00,64.9,52.9,25.28,East,84,3.6,3.6,65,0.00,,---,0.04,VWS V14.01,2013-07-23 04:25:00,
2013-07-22 22:26:00,64.8,52.3,25.28,SSE,156,4.0,4.0,64,0.00,,---,0.04,VWS V14.01,2013-07-23 04:26:00,
2013-07-22 22:29:00,64.8,52.3,25.28,WNW,294,0.0,3.1,64,0.00,,---,0.04,VWS V14.01,2013-07-23 04:29:00,
2013-07-22 22:31:00,64.8,52.3,25.28,WNW,294,0.0,0.0,64,0.00,,---,0.04,VWS V14.01,2013-07-23 04:31:00,
2013-07-22 22:32:00,64.8,52.3,25.28,WNW,294,0.0,0.0,64,0.00,,---,0.04,VWS V14.01,2013-07-23 04:32:00,
2013-07-22 22:35:00,63.1,53.2,25.28,WNW,283,4.9,4.9,70,0.00,,---,0.04,VWS V14.01,2013-07-23 04:35:00,
2013-07-22 22:37:00,63.0,53.4,25.28,WNW,283,4.9,4.9,71,0.00,,---,0.04,VWS V14.01,2013-07-23 04:37:00,
2013-07-22 22:39:00,63.0,53.4,25.28,West,261,0.0,4.9,71,0.00,,---,0.04,VWS V14.01,2013-07-23 04:39:00,
2013-07-22 22:41:00,62.2,53.5,25.28,West,261,3.1,3.1,73,0.00,,---,0.04,VWS V14.01,2013-07-23 04:41:00,
2013-07-22 22:45:00,61.9,53.1,25.28,West,261,0.0,3.1,73,0.00,,---,0.04,VWS V14.01,2013-07-23 04:45:00,
2013-07-22 22:46:00,61.9,53.1,25.28,West,261,0.0,0.0,73,0.00,,---,0.04,VWS V14.01,2013-07-23 04:46:00,
2013-07-22 22:49:00,61.7,53.3,25.28,West,261,0.0,0.0,74,0.00,,---,0.04,VWS V14.01,2013-07-23 04:49:00,
2013-07-22 22:51:00,61.7,53.3,25.31,West,261,0.0,0.0,74,0.00,,---,0.04,VWS V14.01,2013-07-23 04:51:00,
2013-07-22 22:52:00,61.5,54.2,25.31,SE,129,2.7,2.7,77,0.00,,---,0.04,VWS V14.01,2013-07-23 04:52:00,
2013-07-22 22:54:00,61.5,54.6,25.31,SSE,156,4.0,4.0,78,0.00,,---,0.04,VWS V14.01,2013-07-23 04:54:00,
2013-07-22 22:57:00,61.5,54.6,25.31,ENE,77,2.7,4.0,78,0.00,,---,0.04,VWS V14.01,2013-07-23 04:57:00,
2013-07-22 22:59:00,61.3,55.5,25.31,East,88,2.7,2.7,81,0.00,,---,0.04,VWS V14.01,2013-07-23 04:59:00,
2013-07-22 23:01:00,61.3,55.8,25.31,South,184,0.0,3.1,82,0.00,,---,0.04,VWS V14.01,2013-07-23 05:01:00,
2013-07-22 23:03:00,61.3,55.8,25.31,South,184,0.0,0.0,82,0.00,,---,0.04,VWS V14.01,2013-07-23 05:03:00,
2013-07-22 23:04:00,61.3,55.8,25.28,South,184,0.0,0.0,82,0.00,,---,0.04,VWS V14.01,2013-07-23 05:04:00,
2013-07-22 23:07:00,61.3,55.8,25.28,ESE,105,3.1,3.1,82,0.00,,---,0.04,VWS V14.01,2013-07-23 05:07:00,
2013-07-22 23:08:00,61.3,55.8,25.28,SE,136,3.6,3.6,82,0.00,,---,0.04,VWS V14.01,2013-07-23 05:08:00,
2013-07-22 23:09:00,61.3,56.1,25.28,SE,136,3.6,3.6,83,0.00,,---,0.04,VWS V14.01,2013-07-23 05:09:00,
2013-07-22 23:10:00,61.5,56.3,25.28,East,90,4.0,4.0,83,0.00,,---,0.04,VWS V14.01,2013-07-23 05:10:00,
2013-07-22 23:13:00,61.7,56.5,25.28,ESE,114,2.2,2.2,83,0.00,,---,0.04,VWS V14.01,2013-07-23 05:13:00,
2013-07-22 23:15:00,61.9,56.3,25.28,East,88,5.8,5.8,82,0.00,,---,0.04,VWS V14.01,2013-07-23 05:15:00,
2013-07-22 23:17:00,61.9,56.3,25.28,SE,143,4.9,4.9,82,0.00,,---,0.04,VWS V14.01,2013-07-23 05:17:00,
2013-07-22 23:18:00,62.1,56.2,25.28,SE,143,4.9,4.9,81,0.00,,---,0.04,VWS V14.01,2013-07-23 05:18:00,
2013-07-22 23:22:00,62.4,55.8,25.28,SE,128,0.0,4.0,79,0.00,,---,0.04,VWS V14.01,2013-07-23 05:22:00,
2013-07-22 23:24:00,62.4,55.5,25.28,SE,133,2.7,2.7,78,0.00,,---,0.04,VWS V14.01,2013-07-23 05:24:00,
2013-07-22 23:27:00,62.4,55.1,25.28,SE,127,3.1,3.1,77,0.00,,---,0.04,VWS V14.01,2013-07-23 05:27:00,
2013-07-22 23:28:00,62.2,55.0,25.28,SE,129,2.7,3.1,77,0.00,,---,0.04,VWS V14.01,2013-07-23 05:28:00,
2013-07-22 23:29:00,62.2,55.0,25.28,NE,52,3.6,3.6,77,0.00,,---,0.04,VWS V14.01,2013-07-23 05:29:00,
2013-07-22 23:30:00,62.2,55.0,25.28,NE,52,3.6,3.6,77,0.00,,---,0.04,VWS V14.01,2013-07-23 05:30:00,
2013-07-22 23:31:00,62.2,55.0,25.28,NE,52,3.6,3.6,77,0.00,,---,0.04,VWS V14.01,2013-07-23 05:31:00,
2013-07-22 23:34:00,62.2,55.0,25.28,ESE,103,5.4,5.4,77,0.00,,---,0.04,VWS V14.01,2013-07-23 05:34:00,
2013-07-22 23:36:00,62.6,53.8,25.28,SSE,156,4.9,5.4,73,0.00,,---,0.04,VWS V14.01,2013-07-23 05:36:00,
2013-07-22 23:37:00,62.8,53.6,25.28,SSE,156,4.9,4.9,72,0.00,,---,0.04,VWS V14.01,2013-07-23 05:37:00,
2013-07-22 23:39:00,63.0,53.0,25.28,East,94,6.7,6.7,70,0.00,,---,0.04,VWS V14.01,2013-07-23 05:39:00,
2013-07-22 23:42:00,63.0,53.0,25.28,South,169,5.8,6.3,70,0.00,,---,0.04,VWS V14.01,2013-07-23 05:42:00,
2013-07-22 23:43:00,64.0,52.9,25.28,ENE,77,8.1,8.1,67,0.00,,---,0.04,VWS V14.01,2013-07-23 05:43:00,
2013-07-22 23:44:00,64.0,52.9,25.28,ENE,77,8.1,8.1,67,0.00,,---,0.04,VWS V14.01,2013-07-23 05:44:00,
2013-07-22 23:45:00,64.2,52.2,25.28,ENE,77,8.1,8.1,65,0.00,,---,0.04,VWS V14.01,2013-07-23 05:45:00,
2013-07-22 23:48:00,64.4,52.0,25.28,ESE,106,10.5,10.5,64,0.00,,---,0.04,VWS V14.01,2013-07-23 05:48:00,
2013-07-22 23:50:00,64.4,52.0,25.28,ESE,106,3.6,10.5,64,0.00,,---,0.04,VWS V14.01,2013-07-23 05:50:00,
2013-07-22 23:51:00,64.4,52.0,25.28,ESE,106,3.6,3.6,64,0.00,,---,0.04,VWS V14.01,2013-07-23 05:51:00,
2013-07-22 23:54:00,64.9,51.6,25.28,SE,142,2.7,6.3,62,0.00,,---,0.04,VWS V14.01,2013-07-23 05:54:00,
2013-07-22 23:56:00,64.9,51.6,25.28,South,177,2.7,2.7,62,0.00,,---,0.04,VWS V14.01,2013-07-23 05:56:00,
2013-07-22 23:57:00,64.9,51.6,25.28,ESE,102,4.9,4.9,62,0.00,,---,0.04,VWS V14.01,2013-07-23 05:57:00,